Location: Newark
(48.2181°N, 17.1299°E)
Time: 15:51:34
(UTC+00:00)

N. Korean satellite - Visible Passes

Search period start: 21 November 2019 00:00
Search period end: 01 December 2019 00:00
Orbit: 456 x 506 km, 97.2° (Epoch: 21 November)

Date Brightness Start Highest point End Pass type
(mag) Time Alt. Az. Time Alt. Az. Time Alt. Az.
21 Nov 10.0 03:44:55 10° NE 03:47:02 14° E 03:49:07 10° SE visible
21 Nov 6.8 05:17:07 10° N 05:20:43 48° WNW 05:24:14 10° SSW visible
21 Nov 6.8 15:55:29 10° S 15:59:08 76° WSW 16:02:52 10° NNW visible
22 Nov 6.6 04:51:38 10° NNE 04:55:22 85° ESE 04:59:00 10° SSW visible
22 Nov 10.0 17:05:41 10° WSW 17:07:30 13° W 17:09:21 10° WNW visible
23 Nov 8.0 04:26:23 10° NNE 04:29:55 41° E 04:33:23 10° S visible
23 Nov 9.2 16:38:50 10° SSW 16:41:53 24° W 16:44:59 10° NW visible
24 Nov 9.3 04:01:27 10° NE 04:04:22 22° E 04:07:15 10° SE visible
24 Nov 7.4 05:34:31 10° N 05:37:49 31° WNW 05:41:02 10° SW visible
24 Nov 7.8 16:12:48 10° S 16:16:21 47° W 16:19:59 10° NNW visible
25 Nov 10.1 03:37:21 10° ENE 03:38:43 12° E 03:40:06 10° ESE visible
25 Nov 6.6 05:08:52 10° N 05:12:31 59° WNW 05:16:05 10° SSW visible
25 Nov 6.6 15:47:15 10° SSE 15:50:56 86° ENE 15:54:41 10° NNW visible
26 Nov 7.0 04:43:27 10° NNE 04:47:08 68° ESE 04:50:44 10° S visible
26 Nov 9.9 16:56:49 10° SW 16:59:12 16° W 17:01:36 10° NW visible
27 Nov 8.4 04:18:16 10° NNE 04:21:39 33° E 04:24:56 10° SSE visible
27 Nov 8.8 16:30:19 10° SSW 16:33:36 30° W 16:36:55 10° NNW visible
28 Nov 9.6 03:53:30 10° NE 03:56:03 18° E 03:58:34 10° SE visible
28 Nov 7.1 05:26:12 10° N 05:29:36 37° WNW 05:32:57 10° SW visible
28 Nov 7.3 16:04:27 10° S 16:08:06 59° W 16:11:48 10° NNW visible
29 Nov 6.5 05:00:37 10° N 05:04:17 74° WNW 05:07:51 10° SSW visible
29 Nov 6.6 15:39:00 10° SSE 15:42:41 69° ENE 15:46:25 10° N visible
29 Nov 10.3 17:15:45 10° W 17:16:32 10° W 17:17:18 10° WNW visible
30 Nov 7.4 04:35:15 10° NNE 04:38:50 53° E 04:42:21 10° S visible
30 Nov 9.6 16:48:07 10° SW 16:50:52 20° W 16:53:39 10° NW visible
